[[{"header":{"parameterUnit":"m.s-1","parameterCategory":1,"la1":30.2991,"la2":30.254,"lo1":-89.0895,"lo2":-89.0444,"dy":0.0017,"dx":0.0017,"nx":28,"ny":28,"refTime":"2024-04-01T03:00:00:Z","depth":0,"parameterNumber":2,"parameterNumberName":"U-component_of_WINDS"},"data":[0,0,0,0,0,0,0,0,0,0,0,0,0,0,0,0,0,0,0,0,0,0,0,0,0,0,0,0,0,0,0,0,0,0,0,0,0,0,0,0,0,0,0,0,0,0,0,0,0,0,0,0,0,0,0,0,0,0,-1.776,-1.7761,0,-1.7792,-1.7793,-1.7793,-1.783,-1.7831,-1.7831,-1.7832,-1.7862,-1.7863,-1.7863,0,0,0,0,0,0,0,0,0,0,0,0,0,-1.7729,-1.7729,-1.776,-1.7761,-1.7761,-1.7792,-1.7793,-1.7793,-1.783,-1.7831,-1.7831,-1.7832,-1.7862,-1.7863,-1.7863,0,0,0,0,0,0,0,0,0,0,0,0,0,-1.7749,-1.7729,-1.776,-1.7783,-1.7786,-1.7792,-1.7793,-1.7793,-1.783,-1.7831,-1.7832,-1.7832,-1.7862,-1.7862,-1.7863,-1.7848,0,0,-1.7864,-1.7864,0,0,0,0,0,0,0,0,-1.7748,-1.7751,-1.7779,-1.7782,-1.7784,-1.7808,-1.7793,-1.7812,-1.783,-1.7813,-1.7832,-1.7833,-1.7843,-1.7845,-1.7849,-1.785,-1.7851,-1.7864,-1.7864,-1.7865,-1.7865,0,0,0,0,0,0,0,-1.7747,-1.7749,-1.7773,-1.778,-1.7783,-1.7791,-1.7795,-1.7796,-1.7823,-1.7815,-1.7817,-1.7821,-1.7845,-1.7849,-1.785,-1.7852,-1.7864,-1.7865,-1.7865,-1.7865,-1.784,-1.7839,0,0,0,0,0,0,-1.7742,-1.7748,-1.7772,-1.7774,-1.7768,-1.7791,-1.7795,-1.78,-1.7823,-1.7827,-1.782,-1.7822,-1.7848,-1.785,-1.7852,-1.7834,-1.7865,-1.7865,-1.7865,-1.7841,-1.784,-1.7839,0,0,0,0,0,0,-1.7741,-1.7744,-1.777,-1.7762,-1.7766,-1.7791,-1.7795,-1.78,-1.7804,-1.7827,-1.7832,-1.7819,-1.7849,-1.7851,-1.7849,-1.7836,-1.7865,-1.7866,-1.7842,-1.784,-1.7839,-1.7801,0,0,0,0,0,0,-1.774,-1.7743,-1.7739,-1.7761,-1.7766,-1.7767,-1.7794,-1.78,-1.7805,-1.7808,-1.7828,-1.7832,-1.7849,-1.7848,-1.7849,-1.7837,-1.7866,-1.7843,-1.7841,-1.7839,-1.7803,-1.7798,-1.7794,0,0,0,0,0,-1.7739,-1.7727,-1.7738,-1.7741,-1.7761,-1.7767,-1.7769,-1.779,-1.7804,-1.7798,-1.7813,-1.7831,-1.7838,-1.7847,-1.7849,-1.7837,-1.7844,-1.7842,-1.784,-1.7805,-1.7799,-1.7794,0,0,0,0,0,0,-1.7701,-1.773,-1.7743,-1.7738,-1.775,-1.7773,-1.7767,-1.7784,-1.7791,-1.7794,-1.7819,-1.7823,-1.7817,-1.7828,-1.7837,-1.7823,-1.7843,-1.7841,-1.7816,-1.7811,-1.7806,-1.7803,-1.7866,0,0,0,0,0,-1.7692,-1.7695,-1.772,-1.7713,-1.7718,-1.7742,-1.7745,-1.776,-1.7773,-1.7778,-1.7793,-1.7804,-1.7808,-1.7811,-1.7816,-1.7806,-1.7809,-1.7798,-1.7794,-1.779,-1.7787,-1.778,-1.7774,-1.7832,-1.7832,-1.7832,0,0,-1.7674,-1.769,-1.769,-1.7706,-1.7717,-1.7718,-1.7746,-1.7746,-1.7747,-1.7778,-1.7776,-1.7788,-1.7802,-1.7794,-1.7792,-1.7802,-1.7772,-1.7787,-1.7784,-1.7783,-1.7777,-1.7772,-1.7767,-1.783,-1.7831,-1.7831,0,0,-1.764,-1.7654,-1.7648,-1.7658,-1.7675,-1.769,-1.7689,-1.771,-1.7719,-1.7718,-1.774,-1.7742,-1.7749,-1.7758,-1.7763,-1.7733,-1.7748,-1.7734,-1.7708,-1.7701,-1.7697,-1.7693,-1.7679,-1.7674,-1.7732,-1.7731,-1.7731,0,-1.7614,-1.7618,-1.7643,-1.7642,-1.7647,-1.7676,-1.767,-1.7679,-1.7696,-1.7698,-1.7711,-1.772,-1.7732,-1.7726,-1.7718,-1.7723,-1.772,-1.773,-1.7696,-1.7692,-1.7689,-1.7676,-1.7671,-1.7729,-1.773,-1.773,-1.773,0,-1.7585,-1.7587,-1.7581,-1.7596,-1.7601,-1.7598,-1.7621,-1.7623,-1.7638,-1.7652,-1.7649,-1.7665,-1.7673,-1.7674,-1.7688,-1.7669,-1.7675,-1.7691,-1.7711,-1.768,-1.7669,-1.7664,-1.7726,-1.7727,-1.7728,-1.7728,0,0,-1.7526,-1.7556,-1.7553,-1.7559,-1.758,-1.7582,-1.7579,-1.7588,-1.7588,-1.7599,-1.7596,-1.7602,-1.7617,-1.7623,-1.7639,-1.7633,-1.7605,-1.765,-1.765,-1.7638,-1.7582,-1.7567,-1.7561,-1.7617,-1.7616,-1.7615,-1.7579,0,-1.7494,-1.7491,-1.7513,-1.7504,-1.7505,-1.7533,-1.753,-1.7542,-1.7555,-1.7557,-1.7572,-1.7575,-1.7596,-1.7599,-1.7595,-1.7609,-1.7593,-1.7612,-1.7612,-1.7611,-1.7604,-1.7556,-1.754,-1.7506,-1.7575,-1.7575,-1.7574,0,-1.7455,-1.7464,-1.7455,-1.7474,-1.7476,-1.7473,-1.7482,-1.7485,-1.7498,-1.7508,-1.7514,-1.7533,-1.7531,-1.7552,-1.7548,-1.756,-1.7562,-1.7569,-1.7568,-1.7566,-1.7588,-1.7549,-1.7496,-1.7489,-1.7568,-1.7568,-1.7569,0,-1.741,-1.742,-1.7415,-1.742,-1.7444,-1.7441,-1.745,-1.7465,-1.7468,-1.7476,-1.7478,-1.7486,-1.7489,-1.7494,-1.7514,-1.7528,-1.7506,-1.753,-1.7512,-1.7512,-1.7504,-1.7504,-1.7446,-1.751,-1.751,-1.751,-1.7511,0,-1.737,-1.7362,-1.7395,-1.7391,-1.7383,-1.7409,-1.74,-1.7413,-1.7425,-1.7424,-1.7449,-1.7447,-1.7475,-1.7476,-1.7492,-1.7484,-1.7486,-1.7493,-1.7496,-1.7488,-1.7487,-1.7487,-1.7489,-1.7509,-1.7509,-1.751,-1.751,0,-1.7316,-1.7338,-1.7334,-1.7357,-1.7363,-1.7355,-1.7374,-1.7371,-1.7387,-1.7385,-1.7386,-1.7409,-1.7411,-1.7432,-1.744,-1.745,-1.7435,-1.7445,-1.743,-1.7432,-1.7412,-1.7413,-1.7351,-1.7342,-1.7414,-1.7414,-1.7413,0,-1.7287,-1.7282,-1.7305,-1.7306,-1.7314,-1.7316,-1.7319,-1.7345,-1.7347,-1.7362,-1.7356,-1.7361,-1.7365,-1.7368,-1.7384,-1.739,-1.7398,-1.7376,-1.7398,-1.739,-1.7393,-1.7392,-1.739,-1.737,-1.7369,-1.7368,-1.7368,0,-1.7233,-1.7244,-1.7249,-1.7256,-1.726,-1.7267,-1.7276,-1.7275,-1.7303,-1.7305,-1.7307,-1.7311,-1.7318,-1.7321,-1.7329,-1.7338,-1.7356,-1.7361,-1.7356,-1.7346,-1.7337,-1.7338,-1.7414,-1.7361,-1.7362,-1.7362,-1.7363,-1.7363,-1.7189,-1.7185,-1.7199,-1.7203,-1.7213,-1.722,-1.7218,-1.7233,-1.7236,-1.7244,-1.7259,-1.7259,-1.7271,-1.7284,-1.7292,-1.7291,-1.7302,-1.7297,-1.7295,-1.7292,-1.7286,-1.734,-1.7293,-1.7293,-1.7294,-1.7294,-1.7294,0,-1.7133,-1.7144,-1.7147,-1.7159,-1.7161,-1.718,-1.7191,-1.7191,-1.7191,-1.7202,-1.7206,-1.7208,-1.7211,-1.7229,-1.7234,-1.723,-1.7238,-1.723,-1.7228,-1.7229,-1.7278,-1.728,-1.7223,-1.7223,-1.7223,-1.7223,-1.7223,-1.7223,-1.7104,-1.7097,-1.711,-1.7107,-1.7119,-1.7119,-1.7123,-1.7129,-1.7138,-1.7139,-1.7142,-1.7154,-1.7167,-1.7173,-1.7176,-1.7181,-1.718,-1.7168,-1.7176,-1.722,-1.7226,-1.7233,-1.7234,-1.7169,-1.7169,-1.7127,-1.7127,-1.7126]},{"header":{"parameterUnit":"m.s-1","parameterCategory":1,"la1":30.2991,"la2":30.254,"lo1":-89.0895,"lo2":-89.0444,"dy":0.0017,"dx":0.0017,"nx":28,"ny":28,"refTime":"2024-04-01T03:00:00:Z","depth":0,"parameterNumber":3,"parameterNumberName":"V-component_of_WINDS"},"data":[0,0,0,0,0,0,0,0,0,0,0,0,0,0,0,0,0,0,0,0,0,0,0,0,0,0,0,0,0,0,0,0,0,0,0,0,0,0,0,0,0,0,0,0,0,0,0,0,0,0,0,0,0,0,0,0,0,0,4.6884,4.6885,0,4.6988,4.6989,4.699,4.6965,4.6963,4.6961,4.6959,4.7064,4.7068,4.7073,0,0,0,0,0,0,0,0,0,0,0,0,0,4.6663,4.6667,4.6884,4.6885,4.6886,4.6988,4.6989,4.699,4.6966,4.6963,4.6961,4.6959,4.7062,4.7068,4.7073,0,0,0,0,0,0,0,0,0,0,0,0,0,4.6762,4.6669,4.6884,4.6886,4.6888,4.6987,4.6989,4.6991,4.6966,4.6963,4.696,4.6957,4.706,4.7067,4.7074,4.7177,0,0,4.7095,4.7098,0,0,0,0,0,0,0,0,4.6756,4.677,4.6885,4.6886,4.6888,4.6961,4.6949,4.7053,4.6967,4.6936,4.6959,4.6956,4.7032,4.7041,4.7067,4.7182,4.7186,4.7096,4.71,4.7103,4.7105,0,0,0,0,0,0,0,4.675,4.6766,4.6925,4.6886,4.6888,4.6882,4.6893,4.6969,4.6999,4.6939,4.6937,4.695,4.7032,4.706,4.7069,4.7188,4.7096,4.7102,4.7106,4.7109,4.7394,4.7397,0,0,0,0,0,0,4.6742,4.676,4.6921,4.6928,4.6814,4.6888,4.69,4.694,4.6999,4.7005,4.6952,4.6948,4.705,4.7061,4.7073,4.7199,4.7103,4.711,4.7114,4.7391,4.7395,4.7399,0,0,0,0,0,0,4.6737,4.6756,4.6917,4.6844,4.6864,4.6895,4.694,4.6944,4.6972,4.7009,4.7014,4.6976,4.7048,4.7063,4.7152,4.7202,4.7113,4.7119,4.7387,4.7392,4.7397,4.745,0,0,0,0,0,0,4.6731,4.6755,4.6794,4.6845,4.6868,4.6995,4.6943,4.6948,4.6984,4.698,4.7032,4.7038,4.7047,4.7142,4.7159,4.721,4.7124,4.7382,4.7389,4.7395,4.7444,4.7457,4.7467,0,0,0,0,0,4.6723,4.6804,4.6796,4.6816,4.6918,4.6998,4.7011,4.702,4.6988,4.7029,4.7053,4.7036,4.7193,4.7151,4.717,4.7224,4.7379,4.7387,4.7395,4.7439,4.7454,4.7467,0,0,0,0,0,0,4.6757,4.6811,4.6803,4.6903,4.6946,4.6994,4.7044,4.7036,4.7088,4.7082,4.709,4.7102,4.7194,4.7217,4.7169,4.7327,4.7282,4.7294,4.7309,4.7324,4.7335,4.7328,4.713,0,0,0,0,0,4.6777,4.6838,4.6881,4.6965,4.6987,4.7012,4.7048,4.7051,4.7096,4.7114,4.7144,4.7188,4.7248,4.7287,4.7343,4.7447,4.7459,4.7494,4.7505,4.7514,4.7525,4.7584,4.76,4.7424,4.7424,4.7424,0,0,4.6817,4.6854,4.6892,4.6973,4.7007,4.7071,4.7028,4.7096,4.7143,4.7124,4.7211,4.7235,4.7284,4.7382,4.7426,4.7404,4.7576,4.7524,4.7531,4.7537,4.7593,4.761,4.7625,4.7429,4.7428,4.7427,0,0,4.6924,4.6957,4.7032,4.7068,4.712,4.7137,4.7154,4.7204,4.722,4.7307,4.7294,4.735,4.7452,4.7489,4.752,4.7643,4.763,4.7661,4.7721,4.7778,4.7792,4.7805,4.785,4.7866,4.7671,4.7671,4.7671,0,4.6967,4.7063,4.7071,4.7142,4.7178,4.7165,4.7241,4.7275,4.7343,4.7369,4.7343,4.7472,4.7505,4.7612,4.7642,4.7667,4.7689,4.7655,4.779,4.7802,4.7814,4.7857,4.7874,4.7674,4.7674,4.7674,4.7673,0,4.7114,4.7181,4.7235,4.7303,4.7345,4.7418,4.7438,4.748,4.748,4.7499,4.7589,4.7627,4.7692,4.7718,4.7717,4.7825,4.781,4.7787,4.7742,4.7834,4.7875,4.7892,4.7679,4.7678,4.7677,4.7676,0,0,4.7245,4.7319,4.7338,4.737,4.7428,4.7479,4.7552,4.7617,4.7653,4.7701,4.7763,4.785,4.7829,4.7866,4.787,4.792,4.8017,4.7891,4.7892,4.7914,4.814,4.8158,4.8177,4.8008,4.8011,4.8014,4.8136,0,4.7359,4.7488,4.7498,4.7614,4.7677,4.7666,4.7729,4.7771,4.7791,4.7847,4.7868,4.7931,4.7898,4.7921,4.797,4.7994,4.8062,4.7985,4.8067,4.8069,4.8056,4.8198,4.8218,4.8331,4.8152,4.8155,4.8157,0,4.7508,4.7562,4.7685,4.7736,4.7762,4.7819,4.7881,4.7933,4.7982,4.7993,4.8034,4.8032,4.8107,4.8058,4.8162,4.811,4.8144,4.8161,4.8166,4.8175,4.812,4.8213,4.8367,4.8385,4.8182,4.818,4.8178,0,4.7593,4.7696,4.7784,4.7811,4.7872,4.7913,4.794,4.7985,4.8024,4.8077,4.8103,4.8164,4.8198,4.8245,4.8259,4.8222,4.8364,4.8315,4.8376,4.8376,4.8407,4.8405,4.8571,4.8426,4.8426,4.8425,4.8425,0,4.772,4.7796,4.7824,4.7878,4.7963,4.7974,4.8058,4.8083,4.8124,4.8182,4.8175,4.8231,4.8246,4.8304,4.8315,4.8401,4.8415,4.8427,4.8429,4.8429,4.8428,4.8452,4.8445,4.843,4.8429,4.8428,4.8427,0,4.783,4.7852,4.7947,4.7998,4.8012,4.8073,4.8116,4.8168,4.8188,4.8262,4.828,4.831,4.8379,4.8397,4.8478,4.8486,4.8588,4.8582,4.8572,4.8572,4.8633,4.8627,4.8821,4.8848,4.8684,4.8685,4.8687,0,4.791,4.7969,4.8026,4.8066,4.8095,4.8158,4.8199,4.8212,4.8255,4.8315,4.836,4.8428,4.8482,4.8592,4.8621,4.8683,4.868,4.8744,4.8689,4.8688,4.8683,4.8681,4.8687,4.8754,4.8756,4.8757,4.8759,0,4.805,4.8059,4.8117,4.8181,4.8229,4.8279,4.8327,4.836,4.838,4.8428,4.8499,4.8541,4.8625,4.8693,4.8756,4.8784,4.8776,4.8775,4.8793,4.8794,4.8786,4.8793,4.8602,4.8771,4.877,4.8769,4.8768,4.8768,4.8149,4.8202,4.8251,4.8317,4.8355,4.8401,4.8453,4.848,4.8539,4.8609,4.8613,4.869,4.8738,4.8823,4.8854,4.8914,4.8895,4.892,4.8927,4.8933,4.894,4.8776,4.8926,4.8925,4.8925,4.8925,4.8924,0,4.8291,4.8322,4.8383,4.8452,4.8504,4.8492,4.8545,4.859,4.8658,4.8703,4.8758,4.884,4.8906,4.8941,4.9006,4.9048,4.9046,4.9065,4.9063,4.907,4.8952,4.8931,4.9066,4.9066,4.9066,4.9066,4.9066,4.9066,4.8371,4.8459,4.8474,4.8582,4.8613,4.8689,4.872,4.8763,4.88,4.8892,4.8947,4.8969,4.9011,4.908,4.914,4.9149,4.9174,4.9196,4.9203,4.9092,4.9078,4.9064,4.9044,4.9201,4.9201,4.9316,4.9317,4.9317]}]]